This demonstration page uses our WeatherBlox Daily Observations layout. Learn more.

Left ArrowRight Arrow

36.17497, -115.13722

Hourly Observations for September 23, 2016

Temp ( °F °C ) Dew Point ( °F °C ) Humidity (%) Winds ( mph kmh ) Pressure ( in mb ) Visibility ( mi km ) Precip ( " mm )
12:53 am 00:53 Clear 67 19.4 20 -6.7 17 17 NW 17 28 29.84 1011 10 16.0934 0 0
1:53 am 01:53 Clear 66 18.9 22 -5.6 19 19 NNW 16 26 29.85 1011 10 16.0934 0 0
2:53 am 02:53 Clear 65 18.3 25 -3.9 22 22 NW 24 39 29.86 1011 10 16.0934 0 0
3:53 am 03:53 Clear 63 17.2 26 -3.3 25 25 NW 18 30 29.88 1012 10 16.0934 0 0
4:53 am 04:53 Clear 62 16.7 31 -0.6 31 31 NNW 18 30 29.91 1013 10 16.0934 0 0
5:53 am 05:53 Clear 61 16.1 31 -0.6 32 32 N 9 15 29.93 1014 10 16.0934 0 0
6:53 am 06:53 Sunny 61 16.1 32 0 34 34 N 16 26 29.96 1015 10 16.0934 0 0
7:53 am 07:53 Sunny 62 16.7 32 0 32 32 NNW 20 31 29.99 1016 10 16.0934 0 0
8:53 am 08:53 Sunny 65 18.3 32 0 29 29 NNW 20 31 29.99 1016 10 16.0934 0 0
9:53 am 09:53 Sunny 68 20 31 -0.6 25 25 NNW 18 30 30.02 1017 10 16.0934 0 0
10:53 am 10:53 Sunny 69 20.6 29 -1.7 22 22 N 20 31 30.03 1017 10 16.0934 0 0
11:53 am 11:53 Sunny 73 22.8 26 -3.3 17 17 N 17 28 30.01 1016 10 16.0934 0 0
12:53 pm 12:53 Sunny 75 23.9 26 -3.3 16 16 N 17 28 30.01 1016 10 16.0934 0 0
1:53 pm 13:53 Sunny 76 24.4 27 -2.8 16 16 NW 14 22 29.99 1016 10 16.0934 0 0
2:53 pm 14:53 Sunny 77 25 28 -2.2 16 16 NNW 17 28 29.97 1015 10 16.0934 0 0
3:53 pm 15:53 Sunny 79 26.1 27 -2.8 15 15 NNW 20 31 29.95 1014 10 16.0934 0 0
4:53 pm 16:53 Sunny 79 26.1 27 -2.8 15 15 NNW 17 28 29.96 1014 10 16.0934 0 0
5:53 pm 17:53 Sunny 79 26.1 27 -2.8 15 15 NNW 9 15 29.96 1015 10 16.0934 0 0
6:53 pm 18:53 Clear 77 25 28 -2.2 16 16 NNW 5 7 29.96 1015 10 16.0934 0 0
7:53 pm 19:53 Clear 74 23.3 29 -1.7 19 19 S 8 13 29.99 1016 10 16.0934 0 0
8:53 pm 20:53 Clear 73 22.8 29 -1.7 19 19 SSW 3 6 29.99 1016 10 16.0934 0 0
9:53 pm 21:53 Clear 69 20.6 28 -2.2 22 22 N 8 13 30 1016 10 16.0934 0 0
10:53 pm 22:53 Clear 68 20 28 -2.2 22 22 N 7 11 30 1016 10 16.0934 0 0
11:53 pm 23:53 Clear 69 20.6 23 -5 17 17 N 8 13 30.01 1016 10 16.0934 0 0

Powered by AerisWeather